This is the latest recevied weather packets stored in our database for station/object DL1MMS-10. If no packets are shown the sender has not sent any weather packets the latest 10 day(s).
| Time | Temp. | Humidity | Pressure | Rain* | Wind** | Luminosity | Snow |
|---|---|---|---|---|---|---|---|
| 1778031220 | 7.22° C | 85% | 1009.8 hPa | 0 mm | - | - | - |
| 1778030919 | 7.22° C | 85% | 1009.8 hPa | 0 mm | - | - | - |
| 1778030619 | 7.22° C | 85% | 1009.8 hPa | 0 mm | - | - | - |
| 1778030319 | 7.22° C | 85% | 1009.7 hPa | 0 mm | - | - | - |
| 1778030019 | 7.22° C | 85% | 1009.9 hPa | 0 mm | - | - | - |
| 1778029718 | 6.67° C | 85% | 1010 hPa | 0 mm | - | - | - |
| 1778029418 | 6.67° C | 85% | 1010.3 hPa | 0 mm | - | - | - |
| 1778029118 | 6.67° C | 85% | 1010.3 hPa | 0 mm | - | - | - |
| 1778028818 | 6.67° C | 85% | 1010.4 hPa | 0 mm | - | - | - |
| 1778028517 | 6.67° C | 85% | 1010.4 hPa | 0 mm | - | - | - |
| 1778028217 | 6.11° C | 85% | 1010.4 hPa | 0 mm | - | - | - |
| 1778027917 | 6.11° C | 84% | 1010.5 hPa | 0 mm | - | - | - |
| 1778027616 | 6.11° C | 84% | 1010.3 hPa | 0 mm | - | - | - |
| 1778027316 | 6.11° C | 83% | 1010.4 hPa | 0 mm | - | - | - |
| 1778027016 | 6.67° C | 83% | 1010.4 hPa | 0 mm | - | - | - |
| 1778026715 | 6.67° C | 83% | 1010.4 hPa | 0 mm | - | - | - |
| 1778026415 | 6.67° C | 82% | 1010.4 hPa | 0 mm | - | - | - |
| 1778026115 | 7.22° C | 82% | 1010.4 hPa | 0 mm | - | - | - |
| 1778025815 | 7.22° C | 82% | 1010.5 hPa | 0 mm | - | - | - |
| 1778025514 | 7.22° C | 81% | 1010.6 hPa | 0 mm | - | - | - |
| 1778025214 | 7.22° C | 81% | 1010.6 hPa | 0 mm | - | - | - |
| 1778024914 | 7.78° C | 81% | 1010.6 hPa | 0 mm | - | - | - |
| 1778024614 | 7.78° C | 81% | 1010.6 hPa | 0 mm | - | - | - |
| 1778024313 | 7.78° C | 81% | 1010.6 hPa | 0 mm | - | - | - |
| 1778024013 | 7.78° C | 80% | 1010.6 hPa | 0 mm | - | - | - |
* Rain latest hour (hover to see other rain measurements)
** Current wind speed in m/s (hover to see current wind gust speed)